Stündliche Wetter Abyek

Heute, 25 Juni, Freitag

Zeit Temperatur Niederschläge Wind Luftdruck Luftfeuchtigkeit
00:00 +26°C° 0 mm 2 m/S 647 mmHg 28%
01:00 +25°C° 0 mm 2 m/S 647 mmHg 28%
02:00 +25°C° 0 mm 2 m/S 647 mmHg 29%
03:00 +24°C° 0 mm 2 m/S 647 mmHg 29%
04:00 +25°C° 0 mm 1 m/S 648 mmHg 29%
05:00 +25°C° 0 mm 1 m/S 648 mmHg 29%
06:00 +26°C° 0 mm 1 m/S 649 mmHg 29%
07:00 +28°C° 0 mm 1 m/S 649 mmHg 25%
08:00 +30°C° 0 mm 2 m/S 650 mmHg 21%
09:00 +31°C° 0 mm 2 m/S 650 mmHg 18%
10:00 +32°C° 0 mm 2 m/S 650 mmHg 16%
11:00 +35°C° 0 mm 2 m/S 650 mmHg 13%
12:00 +36°C° 0 mm 3 m/S 650 mmHg 11%
13:00 +36°C° 0 mm 2 m/S 649 mmHg 11%
14:00 +37°C° 0 mm 2 m/S 649 mmHg 11%
15:00 +37°C° 0 mm 2 m/S 649 mmHg 10%
16:00 +37°C° 0 mm 2 m/S 648 mmHg 11%
17:00 +36°C° 0 mm 2 m/S 648 mmHg 12%
18:00 +36°C° 0 mm 2 m/S 648 mmHg 13%
19:00 +34°C° 0 mm 2 m/S 648 mmHg 15%
20:00 +31°C° 0 mm 3 m/S 648 mmHg 17%
21:00 +30°C° 0 mm 3 m/S 647 mmHg 19%
22:00 +29°C° 0 mm 3 m/S 647 mmHg 19%
23:00 +28°C° 0 mm 2 m/S 647 mmHg 19%

Morgen, 26 Juni, Samstag

Zeit Temperatur Niederschläge Wind Luftdruck Luftfeuchtigkeit
00:00 +27°C° 0 mm 2 m/S 647 mmHg 19%
01:00 +27°C° 0 mm 2 m/S 647 mmHg 19%
02:00 +26°C° 0 mm 2 m/S 647 mmHg 19%
03:00 +25°C° 0 mm 1 m/S 647 mmHg 19%
04:00 +26°C° 0 mm 2 m/S 647 mmHg 18%
05:00 +27°C° 0 mm 2 m/S 648 mmHg 18%
06:00 +28°C° 0 mm 2 m/S 648 mmHg 17%
07:00 +29°C° 0 mm 3 m/S 649 mmHg 15%
08:00 +32°C° 0 mm 4 m/S 649 mmHg 14%
09:00 +33°C° 0 mm 5 m/S 649 mmHg 12%
10:00 +34°C° 0 mm 4 m/S 649 mmHg 12%
11:00 +35°C° 0 mm 4 m/S 649 mmHg 11%
12:00 +36°C° 0 mm 3 m/S 648 mmHg 11%
13:00 +36°C° 0 mm 3 m/S 648 mmHg 10%
14:00 +37°C° 0 mm 3 m/S 648 mmHg 10%
15:00 +37°C° 0 mm 3 m/S 647 mmHg 10%
16:00 +37°C° 0 mm 2 m/S 647 mmHg 10%
17:00 +36°C° 0 mm 2 m/S 647 mmHg 11%
18:00 +36°C° 0 mm 2 m/S 646 mmHg 12%
19:00 +34°C° 0 mm 2 m/S 646 mmHg 13%
20:00 +31°C° 0 mm 3 m/S 646 mmHg 15%
21:00 +29°C° 0 mm 3 m/S 646 mmHg 16%
22:00 +29°C° 0 mm 3 m/S 646 mmHg 17%
23:00 +28°C° 0 mm 2 m/S 646 mmHg 18%

übermorgen, 27 Juni, Sonntag

Zeit Temperatur Niederschläge Wind Luftdruck Luftfeuchtigkeit
00:00 +27°C° 0 mm 2 m/S 646 mmHg 18%
01:00 +27°C° 0 mm 2 m/S 646 mmHg 19%
02:00 +27°C° 0 mm 2 m/S 646 mmHg 19%
03:00 +26°C° 0 mm 3 m/S 647 mmHg 19%
04:00 +27°C° 0 mm 3 m/S 647 mmHg 19%
05:00 +28°C° 0 mm 3 m/S 648 mmHg 19%
06:00 +28°C° 0 mm 2 m/S 648 mmHg 19%
07:00 +30°C° 0 mm 4 m/S 648 mmHg 17%
08:00 +32°C° 0 mm 5 m/S 649 mmHg 15%
09:00 +34°C° 0 mm 6 m/S 649 mmHg 13%
10:00 +35°C° 0 mm 6 m/S 649 mmHg 13%
11:00 +36°C° 0 mm 6 m/S 649 mmHg 12%
12:00 +36°C° 0 mm 5 m/S 649 mmHg 11%
13:00 +37°C° 0 mm 5 m/S 649 mmHg 11%
14:00 +37°C° 0 mm 4 m/S 648 mmHg 11%
15:00 +37°C° 0 mm 3 m/S 648 mmHg 10%
16:00 +37°C° 0 mm 3 m/S 648 mmHg 12%
17:00 +36°C° 0 mm 3 m/S 648 mmHg 13%
18:00 +36°C° 0 mm 3 m/S 647 mmHg 15%
19:00 +34°C° 0 mm 3 m/S 647 mmHg 18%
20:00 +31°C° 0 mm 3 m/S 648 mmHg 21%
21:00 +30°C° 0 mm 3 m/S 648 mmHg 25%
22:00 +29°C° 0 mm 3 m/S 647 mmHg 25%
23:00 +29°C° 0 mm 2 m/S 647 mmHg 24%

28 Juni, Montag

Zeit Temperatur Niederschläge Wind Luftdruck Luftfeuchtigkeit
00:00 +29°C° 0 mm 2 m/S 647 mmHg 24%
01:00 +28°C° 0 mm 2 m/S 647 mmHg 25%
02:00 +27°C° 0 mm 2 m/S 647 mmHg 26%
03:00 +27°C° 0 mm 2 m/S 647 mmHg 26%
04:00 +27°C° 0 mm 1 m/S 648 mmHg 25%
05:00 +28°C° 0 mm 1 m/S 648 mmHg 24%
06:00 +29°C° 0 mm 1 m/S 648 mmHg 23%
07:00 +30°C° 0 mm 2 m/S 649 mmHg 19%
08:00 +33°C° 0 mm 3 m/S 649 mmHg 16%
09:00 +34°C° 0 mm 4 m/S 650 mmHg 13%
10:00 +35°C° 0 mm 5 m/S 650 mmHg 12%
11:00 +36°C° 0 mm 5 m/S 650 mmHg 11%
12:00 +37°C° 0 mm 5 m/S 650 mmHg 11%
13:00 +37°C° 0 mm 5 m/S 649 mmHg 11%
14:00 +37°C° 0 mm 5 m/S 649 mmHg 11%
15:00 +37°C° 0 mm 4 m/S 649 mmHg 12%
16:00 +37°C° 0 mm 4 m/S 649 mmHg 12%
17:00 +36°C° 0 mm 4 m/S 649 mmHg 13%
18:00 +36°C° 0 mm 4 m/S 648 mmHg 13%
19:00 +34°C° 0 mm 4 m/S 648 mmHg 15%
20:00 +31°C° 0 mm 3 m/S 648 mmHg 17%
21:00 +30°C° 0 mm 3 m/S 648 mmHg 19%
22:00 +29°C° 0 mm 3 m/S 648 mmHg 19%
23:00 +29°C° 0 mm 2 m/S 648 mmHg 20%

29 Juni, Dienstag

Zeit Temperatur Niederschläge Wind Luftdruck Luftfeuchtigkeit
00:00 +28°C° 0 mm 2 m/S 648 mmHg 20%
01:00 +28°C° 0 mm 2 m/S 648 mmHg 21%
02:00 +27°C° 0 mm 2 m/S 648 mmHg 21%
03:00 +27°C° 0 mm 2 m/S 647 mmHg 21%
04:00 +28°C° 0 mm 2 m/S 648 mmHg 21%
05:00 +29°C° 0 mm 2 m/S 648 mmHg 20%
06:00 +29°C° 0 mm 2 m/S 649 mmHg 19%
07:00 +32°C° 0 mm 4 m/S 649 mmHg 17%
08:00 +33°C° 0 mm 6 m/S 649 mmHg 15%
09:00 +35°C° 0 mm 8 m/S 650 mmHg 13%
10:00 +37°C° 0 mm 8 m/S 650 mmHg 12%
11:00 +38°C° 0 mm 7 m/S 650 mmHg 11%
12:00 +39°C° 0 mm 7 m/S 650 mmHg 11%
13:00 +39°C° 0 mm 6 m/S 649 mmHg 10%
14:00 +39°C° 0 mm 5 m/S 649 mmHg 10%
15:00 +38°C° 0 mm 4 m/S 648 mmHg 10%
16:00 +38°C° 0 mm 4 m/S 648 mmHg 11%
17:00 +37°C° 0 mm 4 m/S 648 mmHg 12%
18:00 +36°C° 0 mm 4 m/S 648 mmHg 14%
19:00 +35°C° 0 mm 4 m/S 648 mmHg 15%
20:00 +34°C° 0 mm 4 m/S 648 mmHg 15%
21:00 +33°C° 0 mm 5 m/S 649 mmHg 16%
22:00 +32°C° 0 mm 4 m/S 648 mmHg 19%
23:00 +29°C° 0 mm 3 m/S 648 mmHg 22%

30 Juni, Mittwoch

Zeit Temperatur Niederschläge Wind Luftdruck Luftfeuchtigkeit
00:00 +28°C° 0 mm 2 m/S 648 mmHg 26%
01:00 +27°C° 0 mm 2 m/S 648 mmHg 26%
02:00 +27°C° 0 mm 2 m/S 647 mmHg 27%
03:00 +26°C° 0 mm 2 m/S 647 mmHg 28%
04:00 +27°C° 0 mm 2 m/S 648 mmHg 27%
05:00 +28°C° 0 mm 1 m/S 648 mmHg 26%
06:00 +29°C° 0 mm 1 m/S 649 mmHg 25%
07:00 +31°C° 0 mm 2 m/S 649 mmHg 22%
08:00 +34°C° 0 mm 3 m/S 649 mmHg 18%
09:00 +35°C° 0 mm 5 m/S 650 mmHg 15%
10:00 +36°C° 0 mm 5 m/S 650 mmHg 14%
11:00 +38°C° 0 mm 6 m/S 650 mmHg 13%
12:00 +39°C° 0 mm 7 m/S 650 mmHg 12%
13:00 +39°C° 0 mm 6 m/S 649 mmHg 11%
14:00 +39°C° 0 mm 5 m/S 649 mmHg 11%
15:00 +40°C° 0 mm 4 m/S 648 mmHg 11%
16:00 +37°C° 0 mm 4 m/S 648 mmHg 14%
17:00 +36°C° 0 mm 4 m/S 648 mmHg 17%
18:00 +35°C° 0 mm 4 m/S 648 mmHg 20%
19:00 +33°C° 0 mm 4 m/S 648 mmHg 21%
20:00 +31°C° 0 mm 3 m/S 648 mmHg 23%
21:00 +30°C° 0 mm 3 m/S 648 mmHg 25%
22:00 +29°C° 0 mm 2 m/S 648 mmHg 28%
23:00 +28°C° 0 mm 2 m/S 648 mmHg 30%
Mehr zeigen

Wir brauchen deine Erlaubnis

Meteoprog und unser Service Anbieter werden persönliche Daten aufbewahren, so wie Cookies, Geräte Bezeichnung oder ähnliche Technologien von deinem Gerät und Prozess, so wie Persönliche Daten Inhalte und Werbungen, genauso wie social Media und den Verkehr zu analysieren.

  • Aufbewahrung und/oder Zugang zu deiner Geräte Informationen.

    Cookies, Geräte Bezeichnung oder andere Informationen, können aufbewahrt oder Zugang zu deinem Gerät erhalten, für den Grund, der oben angegeben wird.

  • Personalisierte Werbung und Inhalte, Messungen, Einblick in das Publikum und Produkt Entwicklung.

    Werbungen und Inhalte können personalisiert werden, basierend auf ein Profil. Mehr Daten können besser personalisierte Werbungen und Inhalte hinzufügen. Werbung und Inhalte können gezeigt und gemessen werden. Einblicke über das Publikum, welche die Werbung gesehen haben und den Inhalt, können abgeleitet werden. So wie Daten können genutzt werden, um es zu verbessern oder die Benutzer Erfahrung zu verbessern das System und die Software.

Wenn du “Ich stimme zu” klickst, erlaubst du uns, die Cookies zu benutzen die Geräte Bezeichnung, den Web oder ähnliche Technologien zu benutzen. Deine Settings, können in deinem Gerät bei deinem Browser geändert werden.

Für den bestimmten Zweck, berechtigten Interessen beruhen darauf, mehr als auf den Inhalt. Du kannst mehr darüber in unseren Privaten und Cookie Politik lesen.